Weather in Amguema

Russia / Chukotka Autonomous Okrug     67°02′40″N   178°52′46″W
temp.,
°C
wind,
m/s
gust,
m/s
humid.,
%
clouds,
%
prec.,
mm/h
press.,
hPa
HPBL,
m
29 july, thu
thu2900:00+2n2499100 5.8 993240
03:00+2nnw1298100 0.6 992138
06:00+2nne0194100 0.8 993138
09:00+3sw1193100 0.4 993232
12:00+3wsw1193100 0.9 993230
15:00+3w1295100 0.4 993506
18:00+3nnw1198100 1.3 994362
21:00+3nne2299100 0.8 995492
30 july, fri
fri3000:00+2n3399100 1.6 996474
03:00+2nne3499100 1.1 997343
06:00+1nne4599100 2.2 999207
09:00+1nne4699100 0.8 1000221
12:00+2ne469699 1.3 1002366
15:00+3ne448594 0.2 1003601
18:00+3ne338395 0.3 1005566
21:00+1ne229385 0.0 100653
31 july, sat
sat3100:000ne119981 0.0 100747
03:00+1nne1199100 0.1 100772
06:00+1nne1199100 0.4 100790
09:00+2nne239499 0.3 1008396
12:00+3ne228496 0.3 1008493
15:00+4ne2273100 0.0 1007643
18:00+4ene227081 0.0 1007601
21:00+2nne349196 0.0 1007152
1 august, sun
sun100:000nne339597 0.0 1007214
03:00−1nne339598 0.1 1008200
06:000nne338686 0.3 1008356
09:00+2ne227795 0.1 1008541
12:00+4nne226894 0.1 1007806
15:00+5ne336283 0.0 1008930
18:00+3ne336385 0.0 1010750
21:00+1ene2277100 0.0 101131
2 august, mon
mon200:00−1ne229175 0.0 101330
03:000ne228693 0.0 101497
06:00+1ne227392 0.0 1014399
09:00+4ne336074 0.0 1015762
12:00+6nne445481 0.0 10151201
15:00+6ne665588 0.0 10161305
18:00+5ene666199 0.0 10171017
21:00+2ene6976100 0.0 1018609